Time,TemperatureF,DewpointF,PressureIn,WindDirection,WindDirectionDegrees,WindSpeedMPH,WindSpeedGustMPH,Humidity,HourlyPrecipIn,Conditions,Clouds,dailyrainin,SolarRadiationWatts/m^2,SoftwareType,DateUTC
2013-02-23 00:00:00,29.9,22.9,30.14,North,350,0.5,3.5,75,0.00,CLR,,0.00,0.0,WeatherDisplay:10.37,2013-02-23 06:00:00,
2013-02-23 00:05:00,29.8,23.2,30.14,North,350,0.5,2.3,76,0.00,CLR,,0.00,0.0,WeatherDisplay:10.37,2013-02-23 06:05:00,
2013-02-23 00:10:00,29.6,23.0,30.14,North,350,3.3,4.6,76,0.00,CLR,,0.00,0.0,WeatherDisplay:10.37,2013-02-23 06:10:00,
2013-02-23 00:15:00,29.8,22.8,30.14,North,350,4.8,8.1,75,0.00,CLR,,0.00,0.0,WeatherDisplay:10.37,2013-02-23 06:15:00,
2013-02-23 00:20:00,29.9,22.9,30.14,North,350,4.6,6.9,75,0.00,CLR,,0.00,0.0,WeatherDisplay:10.37,2013-02-23 06:20:00,
2013-02-23 00:25:00,29.9,22.9,30.13,North,350,1.1,3.5,75,0.00,CLR,,0.00,0.0,WeatherDisplay:10.37,2013-02-23 06:25:00,
2013-02-23 00:30:00,29.6,23.0,30.13,North,350,2.5,3.5,76,0.00,CLR,,0.00,0.0,WeatherDisplay:10.37,2013-02-23 06:30:00,
2013-02-23 00:35:00,29.2,22.6,30.13,North,350,0.4,3.5,76,0.00,CLR,,0.00,0.0,WeatherDisplay:10.37,2013-02-23 06:35:00,
2013-02-23 00:40:00,29.2,22.9,30.13,North,350,3.4,5.0,77,0.00,CLR,,0.00,0.0,WeatherDisplay:10.37,2013-02-23 06:40:00,
2013-02-23 00:45:00,29.5,22.9,30.13,North,6,4.2,5.8,76,0.00,CLR,,0.00,0.0,WeatherDisplay:10.37,2013-02-23 06:45:00,
2013-02-23 00:50:00,29.5,22.9,30.13,NNE,18,4.1,9.0,76,0.00,CLR,,0.00,0.0,WeatherDisplay:10.37,2013-02-23 06:50:00,
2013-02-23 00:55:00,29.5,22.9,30.13,NNE,22,4.5,8.1,76,0.00,CLR,,0.00,0.0,WeatherDisplay:10.37,2013-02-23 06:55:00,
2013-02-23 01:00:00,29.8,22.8,30.12,NNE,21,6.2,8.1,75,0.00,CLR,,0.00,0.0,WeatherDisplay:10.37,2013-02-23 07:00:00,
2013-02-23 01:05:00,29.7,22.7,30.12,North,6,4.0,10.4,75,0.00,CLR,,0.00,0.0,WeatherDisplay:10.37,2013-02-23 07:05:00,
2013-02-23 01:10:00,29.8,22.8,30.12,NNE,18,5.5,6.9,75,0.00,CLR,,0.00,0.0,WeatherDisplay:10.37,2013-02-23 07:10:00,
2013-02-23 01:15:00,29.7,22.7,30.12,NNE,18,3.2,8.1,75,0.00,CLR,,0.00,0.0,WeatherDisplay:10.37,2013-02-23 07:15:00,
2013-02-23 01:20:00,29.6,22.6,30.12,NNE,23,4.8,7.0,75,0.00,CLR,,0.00,0.0,WeatherDisplay:10.37,2013-02-23 07:20:00,
2013-02-23 01:25:00,29.4,22.8,30.12,NNE,29,3.7,11.5,76,0.00,CLR,,0.00,0.0,WeatherDisplay:10.37,2013-02-23 07:25:00,
2013-02-23 01:30:00,29.1,22.8,30.11,NNE,25,4.7,8.1,77,0.00,CLR,,0.00,0.0,WeatherDisplay:10.37,2013-02-23 07:30:00,
2013-02-23 01:35:00,28.8,22.8,30.11,NNE,26,4.7,8.1,78,0.00,CLR,,0.00,0.0,WeatherDisplay:10.37,2013-02-23 07:35:00,
2013-02-23 01:40:00,28.7,22.7,30.11,NNE,27,5.8,8.1,78,0.00,CLR,,0.00,0.0,WeatherDisplay:10.37,2013-02-23 07:40:00,
2013-02-23 01:45:00,28.6,22.6,30.10,NNE,28,3.8,8.0,78,0.00,CLR,,0.00,0.0,WeatherDisplay:10.37,2013-02-23 07:45:00,
2013-02-23 01:50:00,28.6,22.6,30.11,NNE,29,4.2,4.6,78,0.00,CLR,,0.00,0.0,WeatherDisplay:10.37,2013-02-23 07:50:00,
2013-02-23 01:55:00,28.7,22.7,30.11,NNE,28,5.6,5.6,78,0.00,CLR,,0.00,0.0,WeatherDisplay:10.37,2013-02-23 07:55:00,
2013-02-23 02:00:00,28.7,22.7,30.11,NNE,25,3.5,8.1,78,0.00,CLR,,0.00,0.0,WeatherDisplay:10.37,2013-02-23 08:00:00,
2013-02-23 02:05:00,28.7,22.7,30.11,NNE,24,4.8,5.0,78,0.00,CLR,,0.00,0.0,WeatherDisplay:10.37,2013-02-23 08:05:00,
2013-02-23 02:10:00,28.4,22.4,30.10,NNE,24,4.6,5.8,78,0.00,CLR,,0.00,0.0,WeatherDisplay:10.37,2013-02-23 08:10:00,
2013-02-23 02:15:00,28.3,22.3,30.11,NNE,24,1.5,4.6,78,0.00,CLR,,0.00,0.0,WeatherDisplay:10.37,2013-02-23 08:15:00,
2013-02-23 02:20:00,28.2,22.2,30.11,NNE,24,2.5,3.5,78,0.00,CLR,,0.00,0.0,WeatherDisplay:10.37,2013-02-23 08:20:00,
2013-02-23 02:25:00,28.1,22.4,30.11,NNE,23,2.8,5.8,79,0.00,CLR,,0.00,0.0,WeatherDisplay:10.37,2013-02-23 08:25:00,
2013-02-23 02:30:00,28.2,22.5,30.10,NNE,24,2.3,5.8,79,0.00,CLR,,0.00,0.0,WeatherDisplay:10.37,2013-02-23 08:30:00,
2013-02-23 02:35:00,27.9,22.5,30.10,NNE,26,4.7,6.9,80,0.00,CLR,,0.00,0.0,WeatherDisplay:10.37,2013-02-23 08:35:00,
2013-02-23 02:40:00,27.7,22.3,30.09,NNE,26,3.8,5.8,80,0.00,CLR,,0.00,0.0,WeatherDisplay:10.37,2013-02-23 08:40:00,
2013-02-23 02:45:00,27.6,22.2,30.09,NNE,27,4.7,6.9,80,0.00,CLR,,0.00,0.0,WeatherDisplay:10.37,2013-02-23 08:45:00,
2013-02-23 02:50:00,27.6,22.2,30.09,NNE,27,3.2,6.9,80,0.00,CLR,,0.00,0.0,WeatherDisplay:10.37,2013-02-23 08:50:00,
2013-02-23 02:55:00,27.4,22.3,30.08,NNE,27,5.0,6.9,81,0.00,CLR,,0.00,0.0,WeatherDisplay:10.37,2013-02-23 08:55:00,
2013-02-23 03:00:00,27.3,22.2,30.08,NNE,28,4.3,6.9,81,0.00,CLR,,0.00,0.0,WeatherDisplay:10.37,2013-02-23 09:00:00,
2013-02-23 03:05:00,27.3,22.2,30.08,NNE,29,5.1,8.0,81,0.00,CLR,,0.00,0.0,WeatherDisplay:10.37,2013-02-23 09:05:00,
2013-02-23 03:10:00,27.2,22.4,30.07,NNE,29,5.2,9.2,82,0.00,CLR,,0.00,0.0,WeatherDisplay:10.37,2013-02-23 09:10:00,
2013-02-23 03:15:00,27.3,22.5,30.07,NNE,29,5.2,5.2,82,0.00,CLR,,0.00,0.0,WeatherDisplay:10.37,2013-02-23 09:15:00,
2013-02-23 03:20:00,27.2,22.1,30.07,NNE,29,3.8,5.8,81,0.00,CLR,,0.00,0.0,WeatherDisplay:10.37,2013-02-23 09:20:00,
2013-02-23 03:25:00,27.3,22.2,30.08,NNE,29,4.8,4.8,81,0.00,CLR,,0.00,0.0,WeatherDisplay:10.37,2013-02-23 09:25:00,
2013-02-23 03:30:00,27.3,22.2,30.08,NNE,29,2.5,5.8,81,0.00,CLR,,0.00,0.0,WeatherDisplay:10.37,2013-02-23 09:30:00,
2013-02-23 03:35:00,27.2,21.8,30.07,NNE,29,3.1,8.1,80,0.00,CLR,,0.00,0.0,WeatherDisplay:10.37,2013-02-23 09:35:00,
2013-02-23 03:40:00,27.3,21.9,30.08,NNE,29,3.9,6.9,80,0.00,CLR,,0.00,0.0,WeatherDisplay:10.37,2013-02-23 09:40:00,
2013-02-23 03:45:00,27.1,21.7,30.07,NNE,29,3.4,8.1,80,0.00,CLR,,0.00,0.0,WeatherDisplay:10.37,2013-02-23 09:45:00,
2013-02-23 03:50:00,27.1,21.7,30.07,NNE,28,3.3,5.8,80,0.00,CLR,,0.00,0.0,WeatherDisplay:10.37,2013-02-23 09:50:00,
2013-02-23 03:55:00,27.0,21.7,30.07,NNE,28,3.8,7.0,80,0.00,CLR,,0.00,0.0,WeatherDisplay:10.37,2013-02-23 09:55:00,
2013-02-23 04:00:00,27.0,21.9,30.07,NNE,25,4.3,8.1,81,0.00,CLR,,0.00,0.0,WeatherDisplay:10.37,2013-02-23 10:00:00,
2013-02-23 04:05:00,26.7,21.7,30.07,NNE,24,3.4,4.6,81,0.00,CLR,,0.00,0.0,WeatherDisplay:10.37,2013-02-23 10:05:00,
2013-02-23 04:10:00,26.6,21.8,30.06,NNE,24,5.1,6.9,82,0.00,CLR,,0.00,0.0,WeatherDisplay:10.37,2013-02-23 10:10:00,
2013-02-23 04:15:00,26.4,21.7,30.06,NNE,23,4.2,5.8,82,0.00,CLR,,0.00,0.0,WeatherDisplay:10.37,2013-02-23 10:15:00,
2013-02-23 04:20:00,26.4,21.7,30.06,NNE,23,3.7,4.6,82,0.00,CLR,,0.00,0.0,WeatherDisplay:10.37,2013-02-23 10:20:00,
2013-02-23 04:25:00,26.4,21.7,30.05,NNE,23,4.0,4.6,82,0.00,CLR,,0.00,0.0,WeatherDisplay:10.37,2013-02-23 10:25:00,
2013-02-23 04:30:00,26.4,21.7,30.06,NNE,23,4.8,5.8,82,0.00,CLR,,0.00,0.0,WeatherDisplay:10.37,2013-02-23 10:30:00,
2013-02-23 04:35:00,26.4,21.7,30.06,NNE,23,5.9,8.1,82,0.00,CLR,,0.00,0.0,WeatherDisplay:10.37,2013-02-23 10:35:00,
2013-02-23 04:40:00,26.4,21.7,30.06,NNE,22,4.9,5.8,82,0.00,CLR,,0.00,0.0,WeatherDisplay:10.37,2013-02-23 10:40:00,
2013-02-23 04:45:00,26.2,21.5,30.06,NNE,22,4.4,8.1,82,0.00,CLR,,0.00,0.0,WeatherDisplay:10.37,2013-02-23 10:45:00,
2013-02-23 04:51:00,26.3,21.6,30.06,NNE,22,3.5,5.8,82,0.00,CLR,,0.00,0.0,WeatherDisplay:10.37,2013-02-23 10:51:00,
2013-02-23 04:56:00,26.2,21.5,30.06,NNE,22,3.5,5.8,82,0.00,CLR,,0.00,0.0,WeatherDisplay:10.37,2013-02-23 10:56:00,
2013-02-23 05:01:00,26.3,21.6,30.06,NNE,22,3.7,5.8,82,0.00,CLR,,0.00,0.0,WeatherDisplay:10.37,2013-02-23 11:01:00,
2013-02-23 05:06:00,26.3,21.6,30.07,NNE,22,3.1,5.8,82,0.00,CLR,,0.00,0.0,WeatherDisplay:10.37,2013-02-23 11:06:00,
2013-02-23 05:11:00,26.2,21.5,30.07,NNE,21,3.1,8.1,82,0.00,CLR,,0.00,0.0,WeatherDisplay:10.37,2013-02-23 11:11:00,
2013-02-23 05:16:00,26.2,21.5,30.07,NNE,20,3.8,8.1,82,0.00,CLR,,0.00,0.0,WeatherDisplay:10.37,2013-02-23 11:16:00,
2013-02-23 05:21:00,26.3,21.6,30.07,NNE,20,3.0,3.5,82,0.00,CLR,,0.00,0.0,WeatherDisplay:10.37,2013-02-23 11:21:00,
2013-02-23 05:26:00,26.4,21.4,30.06,NNE,20,3.3,9.2,81,0.00,CLR,,0.00,0.0,WeatherDisplay:10.37,2013-02-23 11:26:00,
2013-02-23 05:31:00,26.4,21.4,30.07,NNE,21,3.9,9.2,81,0.00,CLR,,0.00,0.0,WeatherDisplay:10.37,2013-02-23 11:31:00,
2013-02-23 05:36:00,26.4,21.4,30.06,NNE,26,5.0,6.9,81,0.00,CLR,,0.00,0.0,WeatherDisplay:10.37,2013-02-23 11:36:00,
2013-02-23 05:41:00,26.3,21.3,30.06,NNE,25,4.7,8.1,81,0.00,CLR,,0.00,0.0,WeatherDisplay:10.37,2013-02-23 11:41:00,
2013-02-23 05:46:00,26.2,21.5,30.06,NNE,25,5.7,6.0,82,0.00,CLR,,0.00,0.0,WeatherDisplay:10.37,2013-02-23 11:46:00,
2013-02-23 05:51:00,25.9,21.2,30.06,NNE,25,5.2,9.2,82,0.00,CLR,,0.00,0.0,WeatherDisplay:10.37,2013-02-23 11:51:00,
2013-02-23 05:56:00,25.8,21.3,30.06,NNE,25,5.3,5.8,83,0.00,CLR,,0.00,0.0,WeatherDisplay:10.37,2013-02-23 11:56:00,
2013-02-23 06:01:00,25.6,21.2,30.06,NNE,25,4.5,4.5,83,0.00,CLR,,0.00,0.0,WeatherDisplay:10.37,2013-02-23 12:01:00,
2013-02-23 06:06:00,25.4,21.2,30.06,NNE,25,4.6,5.8,84,0.00,CLR,,0.00,0.0,WeatherDisplay:10.37,2013-02-23 12:06:00,
2013-02-23 06:11:00,25.4,21.2,30.06,NNE,25,3.7,5.8,84,0.00,CLR,,0.00,0.0,WeatherDisplay:10.37,2013-02-23 12:11:00,
2013-02-23 06:16:00,25.3,21.1,30.06,NNE,25,2.0,5.8,84,0.00,CLR,,0.00,0.0,WeatherDisplay:10.37,2013-02-23 12:16:00,
2013-02-23 06:21:00,25.2,21.0,30.06,NNE,25,1.2,3.5,84,0.00,CLR,,0.00,0.0,WeatherDisplay:10.37,2013-02-23 12:21:00,
2013-02-23 06:26:00,24.9,21.0,30.06,NNE,25,2.8,3.5,85,0.00,CLR,,0.00,0.0,WeatherDisplay:10.37,2013-02-23 12:26:00,
2013-02-23 06:31:00,25.0,21.1,30.06,NNE,25,2.8,3.5,85,0.00,CLR,,0.00,0.0,WeatherDisplay:10.37,2013-02-23 12:31:00,
2013-02-23 06:36:00,25.1,21.2,30.06,NNE,25,2.2,4.6,85,0.00,CLR,,0.00,0.0,WeatherDisplay:10.37,2013-02-23 12:36:00,
2013-02-23 06:41:00,25.1,21.2,30.06,NNE,25,3.0,3.5,85,0.00,CLR,,0.00,0.0,WeatherDisplay:10.37,2013-02-23 12:41:00,
2013-02-23 06:46:00,25.0,21.1,30.06,NNE,25,2.1,4.0,85,0.00,CLR,,0.00,0.0,WeatherDisplay:10.37,2013-02-23 12:46:00,
2013-02-23 06:51:00,24.8,20.9,30.06,NNE,25,3.0,4.6,85,0.00,CLR,,0.00,0.0,WeatherDisplay:10.37,2013-02-23 12:51:00,
2013-02-23 06:56:00,24.7,21.1,30.07,NNE,25,0.3,3.5,86,0.00,CLR,,0.00,0.0,WeatherDisplay:10.37,2013-02-23 12:56:00,
2013-02-23 07:01:00,24.6,21.0,30.07,NNE,25,0.0,0.0,86,0.00,CLR,,0.00,0.0,WeatherDisplay:10.37,2013-02-23 13:01:00,
2013-02-23 07:06:00,24.6,20.7,30.07,NNE,25,0.0,0.0,85,0.00,CLR,,0.00,5.5,WeatherDisplay:10.37,2013-02-23 13:06:00,
2013-02-23 07:11:00,24.5,20.9,30.07,NNE,25,0.3,2.3,86,0.00,CLR,,0.00,7.7,WeatherDisplay:10.37,2013-02-23 13:11:00,
2013-02-23 07:16:00,24.5,20.9,30.07,NNE,25,0.0,0.0,86,0.00,CLR,,0.00,12.1,WeatherDisplay:10.37,2013-02-23 13:16:00,
2013-02-23 07:21:00,24.6,21.3,30.08,NNE,25,0.0,0.0,87,0.00,CLR,,0.00,13.2,WeatherDisplay:10.37,2013-02-23 13:21:00,
2013-02-23 07:26:00,24.6,21.6,30.08,NNE,25,0.0,0.0,88,0.00,CLR,,0.00,17.6,WeatherDisplay:10.37,2013-02-23 13:26:00,
2013-02-23 07:31:00,24.8,21.5,30.08,NNE,25,0.7,1.1,87,0.00,CLR,,0.00,20.9,WeatherDisplay:10.37,2013-02-23 13:31:00,
2013-02-23 07:36:00,25.1,21.5,30.08,NNE,25,1.0,3.5,86,0.00,CLR,,0.00,23.1,WeatherDisplay:10.37,2013-02-23 13:36:00,
2013-02-23 07:41:00,25.6,21.7,30.09,NNE,25,3.5,5.8,85,0.00,CLR,,0.00,27.5,WeatherDisplay:10.37,2013-02-23 13:41:00,
2013-02-23 07:46:00,26.0,21.8,30.09,NNE,25,0.0,0.0,84,0.00,CLR,,0.00,28.6,WeatherDisplay:10.37,2013-02-23 13:46:00,
2013-02-23 07:51:00,26.2,21.5,30.09,NNE,25,0.0,0.0,82,0.00,CLR,,0.00,30.8,WeatherDisplay:10.37,2013-02-23 13:51:00,
2013-02-23 07:56:00,26.5,21.7,30.09,NNE,25,0.0,0.0,82,0.00,CLR,,0.00,33.0,WeatherDisplay:10.37,2013-02-23 13:56:00,
2013-02-23 08:01:00,26.9,21.8,30.09,NNE,25,0.0,0.0,81,0.00,CLR,,0.00,35.2,WeatherDisplay:10.37,2013-02-23 14:01:00,
2013-02-23 08:06:00,27.3,22.2,30.09,NNE,25,1.0,4.0,81,0.00,CLR,,0.00,36.3,WeatherDisplay:10.37,2013-02-23 14:06:00,
2013-02-23 08:11:00,27.5,21.5,30.10,NNE,25,0.0,0.0,78,0.00,CLR,,0.00,38.5,WeatherDisplay:10.37,2013-02-23 14:11:00,
2013-02-23 08:16:00,27.8,21.2,30.10,NNE,25,0.0,0.0,76,0.00,CLR,,0.00,42.9,WeatherDisplay:10.37,2013-02-23 14:16:00,
2013-02-23 08:21:00,28.0,21.4,30.10,NNE,25,0.2,3.5,76,0.00,CLR,,0.00,44.0,WeatherDisplay:10.37,2013-02-23 14:21:00,
2013-02-23 08:26:00,28.2,21.3,30.11,NNE,25,0.0,1.1,75,0.00,CLR,,0.00,50.6,WeatherDisplay:10.37,2013-02-23 14:26:00,
2013-02-23 08:31:00,28.4,21.5,30.11,NNE,25,2.0,3.5,75,0.00,CLR,,0.00,107.8,WeatherDisplay:10.37,2013-02-23 14:31:00,
2013-02-23 08:36:00,28.9,21.3,30.11,NNE,25,2.7,3.5,73,0.00,CLR,,0.00,145.2,WeatherDisplay:10.37,2013-02-23 14:36:00,
2013-02-23 08:41:00,29.2,21.3,30.11,NNE,25,2.3,3.5,72,0.00,CLR,,0.00,96.8,WeatherDisplay:10.37,2013-02-23 14:41:00,
2013-02-23 08:46:00,29.1,21.5,30.12,NNE,25,0.5,2.3,73,0.00,CLR,,0.00,107.8,WeatherDisplay:10.37,2013-02-23 14:46:00,
2013-02-23 08:51:00,29.6,22.0,30.12,NNE,26,3.8,5.8,73,0.00,CLR,,0.00,119.9,WeatherDisplay:10.37,2013-02-23 14:51:00,
2013-02-23 08:56:00,29.7,20.4,30.12,NNE,26,0.0,1.1,68,0.00,CLR,,0.00,122.1,WeatherDisplay:10.37,2013-02-23 14:56:00,
2013-02-23 09:01:00,29.8,20.9,30.13,NNE,26,0.1,1.0,69,0.00,CLR,,0.00,129.8,WeatherDisplay:10.37,2013-02-23 15:01:00,
2013-02-23 09:06:00,30.1,20.5,30.14,NNE,26,0.0,2.3,67,0.00,CLR,,0.00,150.7,WeatherDisplay:10.37,2013-02-23 15:06:00,
2013-02-23 09:11:00,30.5,20.8,30.14,NNE,26,0.0,0.0,67,0.00,CLR,,0.00,155.1,WeatherDisplay:10.37,2013-02-23 15:11:00,
2013-02-23 09:16:00,30.9,21.2,30.13,NNE,26,0.0,0.0,67,0.00,BKN,,0.00,148.5,WeatherDisplay:10.37,2013-02-23 15:16:00,
2013-02-23 09:21:00,30.8,21.5,30.13,NNE,26,0.0,0.0,68,0.00,BKN,,0.00,183.7,WeatherDisplay:10.37,2013-02-23 15:21:00,
2013-02-23 09:26:00,31.1,21.4,30.13,NNE,26,0.0,0.0,67,0.00,BKN,,0.00,209.0,WeatherDisplay:10.37,2013-02-23 15:26:00,
2013-02-23 09:31:00,31.0,20.6,30.13,NNE,26,0.0,0.0,65,0.00,BKN,,0.00,162.8,WeatherDisplay:10.37,2013-02-23 15:31:00,
2013-02-23 09:36:00,31.3,21.6,30.13,NNE,26,1.7,3.5,67,0.00,BKN,,0.00,179.3,WeatherDisplay:10.37,2013-02-23 15:36:00,
2013-02-23 09:41:00,32.0,21.2,30.13,NNE,26,1.1,3.5,64,0.00,BKN,,0.00,319.0,WeatherDisplay:10.37,2013-02-23 15:41:00,
2013-02-23 09:46:00,32.3,21.8,30.13,NNE,26,1.7,3.5,65,0.00,SCT,,0.00,423.5,WeatherDisplay:10.37,2013-02-23 15:46:00,
2013-02-23 09:51:00,32.8,21.6,30.13,NNE,25,1.9,3.5,63,0.00,SCT,,0.00,342.1,WeatherDisplay:10.37,2013-02-23 15:51:00,
2013-02-23 09:56:00,33.5,22.6,30.13,NNE,23,3.8,4.0,64,0.00,SCT,,0.00,482.9,WeatherDisplay:10.37,2013-02-23 15:56:00,
2013-02-23 10:01:00,34.1,22.8,30.13,NNE,20,1.1,3.5,63,0.00,SCT,,0.00,382.8,WeatherDisplay:10.37,2013-02-23 16:01:00,
2013-02-23 10:06:00,34.3,21.8,30.13,NNE,20,0.4,4.6,60,0.00,SCT,,0.00,400.4,WeatherDisplay:10.37,2013-02-23 16:06:00,
2013-02-23 10:11:00,34.8,23.1,30.12,NNE,20,0.0,0.0,62,0.00,SCT,,0.00,410.3,WeatherDisplay:10.37,2013-02-23 16:11:00,
2013-02-23 10:16:00,35.7,21.9,30.12,NNE,20,0.6,2.0,57,0.00,SCT,,0.00,418.0,WeatherDisplay:10.37,2013-02-23 16:16:00,
2013-02-23 10:21:00,35.5,21.3,30.12,NNE,20,0.2,1.1,56,0.00,SCT,,0.00,435.6,WeatherDisplay:10.37,2013-02-23 16:21:00,
2013-02-23 10:26:00,35.7,21.1,30.13,NNE,20,0.7,2.3,55,0.00,SCT,,0.00,495.0,WeatherDisplay:10.37,2013-02-23 16:26:00,
2013-02-23 10:31:00,36.3,21.7,30.13,NNE,20,1.7,2.3,55,0.00,CLR,,0.00,497.2,WeatherDisplay:10.37,2013-02-23 16:31:00,
2013-02-23 10:36:00,36.6,21.5,30.12,NNE,20,0.8,3.5,54,0.00,CLR,,0.00,554.4,WeatherDisplay:10.37,2013-02-23 16:36:00,
2013-02-23 10:41:00,36.2,21.1,30.13,NNE,20,0.3,1.1,54,0.00,CLR,,0.00,398.2,WeatherDisplay:10.37,2013-02-23 16:41:00,
2013-02-23 10:46:00,37.0,21.9,30.12,NNE,20,0.3,1.1,54,0.00,SCT,,0.00,507.1,WeatherDisplay:10.37,2013-02-23 16:46:00,
2013-02-23 10:51:00,36.9,20.9,30.12,NNE,20,0.1,1.1,52,0.00,SCT,,0.00,474.1,WeatherDisplay:10.37,2013-02-23 16:51:00,
2013-02-23 10:56:00,37.1,21.5,30.12,NNE,20,0.4,2.3,53,0.00,SCT,,0.00,346.5,WeatherDisplay:10.37,2013-02-23 16:56:00,
2013-02-23 11:01:00,38.2,23.4,30.14,NNE,20,0.8,3.5,55,0.00,SCT,,0.00,454.3,WeatherDisplay:10.37,2013-02-23 17:01:00,
2013-02-23 11:06:00,38.8,23.1,30.14,NNE,20,0.0,2.3,53,0.00,SCT,,0.00,558.8,WeatherDisplay:10.37,2013-02-23 17:06:00,
2013-02-23 11:11:00,39.5,23.3,30.14,WNW,287,5.5,9.2,52,0.00,SCT,,0.00,438.9,WeatherDisplay:10.37,2013-02-23 17:11:00,
2013-02-23 11:16:00,39.8,24.5,30.14,WSW,257,7.5,9.2,54,0.00,SCT,,0.00,448.8,WeatherDisplay:10.37,2013-02-23 17:16:00,
2013-02-23 11:21:00,40.1,24.8,30.14,West,263,6.4,10.4,54,0.00,SCT,,0.00,396.0,WeatherDisplay:10.37,2013-02-23 17:21:00,
2013-02-23 11:26:00,40.0,24.7,30.14,West,264,3.3,5.8,54,0.00,SCT,,0.00,579.7,WeatherDisplay:10.37,2013-02-23 17:26:00,
2013-02-23 11:31:00,40.4,25.5,30.13,West,262,4.7,5.8,55,0.00,SCT,,0.00,706.2,WeatherDisplay:10.37,2013-02-23 17:31:00,
2013-02-23 11:36:00,40.5,24.7,30.12,West,262,1.5,5.0,53,0.00,SCT,,0.00,346.5,WeatherDisplay:10.37,2013-02-23 17:36:00,
2013-02-23 11:41:00,39.5,23.3,30.12,SW,233,3.9,6.0,52,0.00,SCT,,0.00,286.0,WeatherDisplay:10.37,2013-02-23 17:41:00,
2013-02-23 11:46:00,39.9,24.6,30.11,WSW,256,3.8,6.9,54,0.00,SCT,,0.00,459.8,WeatherDisplay:10.37,2013-02-23 17:46:00,
2013-02-23 11:51:00,40.7,25.3,30.11,WSW,256,0.8,4.6,54,0.00,SCT,,0.00,388.3,WeatherDisplay:10.37,2013-02-23 17:51:00,
2013-02-23 11:56:00,42.3,25.0,30.10,WNW,302,7.3,8.1,50,0.00,SCT,,0.00,620.4,WeatherDisplay:10.37,2013-02-23 17:56:00,
2013-02-23 12:01:00,42.0,24.2,30.10,WNW,303,1.7,3.5,49,0.00,SCT,,0.00,545.6,WeatherDisplay:10.37,2013-02-23 18:01:00,
2013-02-23 12:06:00,41.8,25.0,30.10,NW,304,3.5,6.9,51,0.00,SCT,,0.00,676.5,WeatherDisplay:10.37,2013-02-23 18:06:00,
2013-02-23 12:11:00,42.1,24.8,30.08,NW,305,2.6,5.0,50,0.00,SCT,,0.00,698.5,WeatherDisplay:10.37,2013-02-23 18:11:00,
2013-02-23 12:16:00,42.8,23.4,30.08,WNW,303,3.0,6.0,46,0.00,SCT,,0.00,587.4,WeatherDisplay:10.37,2013-02-23 18:16:00,
2013-02-23 12:21:00,42.4,22.0,30.08,WNW,303,0.0,0.0,44,0.00,SCT,,0.00,388.3,WeatherDisplay:10.37,2013-02-23 18:21:00,
2013-02-23 12:26:00,42.5,24.7,30.07,WNW,303,2.0,4.0,49,0.00,SCT,,0.00,354.2,WeatherDisplay:10.37,2013-02-23 18:26:00,
2013-02-23 12:31:00,42.8,23.9,30.06,WNW,303,2.7,3.5,47,0.00,BKN,,0.00,694.1,WeatherDisplay:10.37,2013-02-23 18:31:00,
2013-02-23 12:36:00,42.6,24.3,30.05,NNE,31,3.3,4.6,48,0.00,BKN,,0.00,694.1,WeatherDisplay:10.37,2013-02-23 18:36:00,
2013-02-23 12:41:00,43.4,24.5,30.05,NE,46,1.3,5.8,47,0.00,BKN,,0.00,841.5,WeatherDisplay:10.37,2013-02-23 18:41:00,
2013-02-23 12:46:00,43.9,23.4,30.05,NE,53,2.7,2.7,44,0.00,BKN,,0.00,837.1,WeatherDisplay:10.37,2013-02-23 18:46:00,
2013-02-23 12:51:00,44.1,25.6,30.04,NE,53,0.3,1.1,48,0.00,BKN,,0.00,827.2,WeatherDisplay:10.37,2013-02-23 18:51:00,
2013-02-23 12:56:00,45.2,24.6,30.05,NNE,33,3.1,5.8,44,0.00,BKN,,0.00,826.1,WeatherDisplay:10.37,2013-02-23 18:56:00,
2013-02-23 13:01:00,44.9,23.7,30.04,NNE,31,0.4,2.3,43,0.00,BKN,,0.00,826.1,WeatherDisplay:10.37,2013-02-23 19:01:00,
2013-02-23 13:06:00,45.4,24.2,30.04,NW,320,3.4,9.2,43,0.00,BKN,,0.00,823.9,WeatherDisplay:10.37,2013-02-23 19:06:00,
2013-02-23 13:11:00,45.4,23.0,30.04,NW,324,0.0,0.0,41,0.00,BKN,,0.00,821.7,WeatherDisplay:10.37,2013-02-23 19:11:00,
2013-02-23 13:16:00,46.7,25.4,30.04,West,279,4.6,8.1,43,0.00,SCT,,0.00,821.7,WeatherDisplay:10.37,2013-02-23 19:16:00,
2013-02-23 13:21:00,46.7,24.8,30.03,West,280,1.9,3.5,42,0.00,SCT,,0.00,821.7,WeatherDisplay:10.37,2013-02-23 19:21:00,
2013-02-23 13:26:00,47.0,25.6,30.03,WNW,286,4.1,6.0,43,0.00,SCT,,0.00,818.4,WeatherDisplay:10.37,2013-02-23 19:26:00,
2013-02-23 13:31:00,46.9,25.0,30.02,WNW,286,0.4,2.3,42,0.00,CLR,,0.00,810.7,WeatherDisplay:10.37,2013-02-23 19:31:00,
2013-02-23 13:36:00,47.0,25.1,30.02,WNW,285,1.2,5.8,42,0.00,CLR,,0.00,806.3,WeatherDisplay:10.37,2013-02-23 19:36:00,
2013-02-23 13:41:00,47.2,26.4,30.02,NW,316,3.2,8.1,44,0.00,CLR,,0.00,804.1,WeatherDisplay:10.37,2013-02-23 19:41:00,
2013-02-23 13:46:00,47.4,25.4,30.01,NW,316,1.3,2.3,42,0.00,CLR,,0.00,798.6,WeatherDisplay:10.37,2013-02-23 19:46:00,
2013-02-23 13:51:00,48.5,25.8,30.01,NNW,339,4.7,8.1,41,0.00,CLR,,0.00,793.1,WeatherDisplay:10.37,2013-02-23 19:51:00,
2013-02-23 13:56:00,48.0,25.4,30.00,North,6,4.1,8.1,41,0.00,CLR,,0.00,785.4,WeatherDisplay:10.37,2013-02-23 19:56:00,
2013-02-23 14:01:00,47.3,25.9,30.01,North,356,4.2,5.8,43,0.00,CLR,,0.00,783.2,WeatherDisplay:10.37,2013-02-23 20:01:00,
2013-02-23 14:06:00,48.0,27.6,30.00,NW,315,6.0,9.2,45,0.00,CLR,,0.00,777.7,WeatherDisplay:10.37,2013-02-23 20:06:00,
2013-02-23 14:11:00,49.2,27.6,30.00,NW,315,4.2,4.2,43,0.00,CLR,,0.00,767.8,WeatherDisplay:10.37,2013-02-23 20:11:00,
2013-02-23 14:16:00,48.1,26.1,30.00,North,1,3.5,6.9,42,0.00,CLR,,0.00,757.9,WeatherDisplay:10.37,2013-02-23 20:16:00,
2013-02-23 14:21:00,48.4,26.9,30.00,NNW,334,3.6,4.6,43,0.00,CLR,,0.00,750.2,WeatherDisplay:10.37,2013-02-23 20:21:00,
2013-02-23 14:26:00,48.1,25.5,29.99,NNW,333,0.9,2.3,41,0.00,CLR,,0.00,740.3,WeatherDisplay:10.37,2013-02-23 20:26:00,
2013-02-23 14:31:00,48.7,26.6,30.00,NNW,329,6.8,6.9,42,0.00,CLR,,0.00,729.3,WeatherDisplay:10.37,2013-02-23 20:31:00,
2013-02-23 14:36:00,48.9,27.9,30.00,NNW,328,3.8,4.6,44,0.00,CLR,,0.00,719.4,WeatherDisplay:10.37,2013-02-23 20:36:00,
2013-02-23 14:41:00,48.7,26.0,29.99,NNW,328,0.4,5.0,41,0.00,CLR,,0.00,709.5,WeatherDisplay:10.37,2013-02-23 20:41:00,
2013-02-23 14:46:00,49.3,28.3,29.99,NW,320,2.0,3.5,44,0.00,CLR,,0.00,698.5,WeatherDisplay:10.37,2013-02-23 20:46:00,
2013-02-23 14:51:00,48.6,26.5,29.99,NW,320,3.2,3.5,42,0.00,CLR,,0.00,684.2,WeatherDisplay:10.37,2013-02-23 20:51:00,
2013-02-23 14:56:00,48.8,27.3,29.98,NW,320,0.4,1.1,43,0.00,CLR,,0.00,673.2,WeatherDisplay:10.37,2013-02-23 20:56:00,
2013-02-23 15:01:00,48.6,26.5,29.98,NW,320,1.8,3.0,42,0.00,CLR,,0.00,663.3,WeatherDisplay:10.37,2013-02-23 21:01:00,
2013-02-23 15:06:00,48.6,27.6,29.97,NW,321,2.1,5.0,44,0.00,CLR,,0.00,650.1,WeatherDisplay:10.37,2013-02-23 21:06:00,
2013-02-23 15:11:00,49.0,28.0,29.97,NW,321,1.4,3.5,44,0.00,CLR,,0.00,638.0,WeatherDisplay:10.37,2013-02-23 21:11:00,
2013-02-23 15:16:00,48.5,27.0,29.96,NW,321,0.0,2.3,43,0.00,CLR,,0.00,572.0,WeatherDisplay:10.37,2013-02-23 21:16:00,
2013-02-23 15:21:00,48.3,27.4,29.97,NW,318,0.9,6.9,44,0.00,CLR,,0.00,173.8,WeatherDisplay:10.37,2013-02-23 21:21:00,
2013-02-23 15:26:00,47.5,27.2,29.97,NW,318,1.3,3.5,45,0.00,CLR,,0.00,68.2,WeatherDisplay:10.37,2013-02-23 21:26:00,
2013-02-23 15:31:00,47.6,27.3,29.96,NW,318,1.9,2.3,45,0.00,CLR,,0.00,59.4,WeatherDisplay:10.37,2013-02-23 21:31:00,
2013-02-23 15:36:00,48.5,27.6,29.96,NW,318,1.0,1.1,44,0.00,CLR,,0.00,58.3,WeatherDisplay:10.37,2013-02-23 21:36:00,
2013-02-23 15:41:00,49.0,28.0,29.95,NW,318,0.0,2.3,44,0.00,CLR,,0.00,56.1,WeatherDisplay:10.37,2013-02-23 21:41:00,
2013-02-23 15:46:00,48.2,27.8,29.95,NW,318,0.8,3.5,45,0.00,CLR,,0.00,56.1,WeatherDisplay:10.37,2013-02-23 21:46:00,
2013-02-23 15:51:00,48.4,28.0,29.96,NW,318,0.2,1.1,45,0.00,CLR,,0.00,56.1,WeatherDisplay:10.37,2013-02-23 21:51:00,
2013-02-23 15:56:00,48.1,28.3,29.96,NW,318,0.6,1.1,46,0.00,CLR,,0.00,56.1,WeatherDisplay:10.37,2013-02-23 21:56:00,
2013-02-23 16:01:00,49.0,29.6,29.96,NW,316,4.1,4.1,47,0.00,CLR,,0.00,53.9,WeatherDisplay:10.37,2013-02-23 22:01:00,
2013-02-23 16:06:00,48.9,28.5,29.97,NW,315,1.7,1.7,45,0.00,CLR,,0.00,53.9,WeatherDisplay:10.37,2013-02-23 22:06:00,
2013-02-23 16:11:00,49.9,30.5,29.97,SW,233,2.4,6.9,47,0.00,CLR,,0.00,53.9,WeatherDisplay:10.37,2013-02-23 22:11:00,
2013-02-23 16:16:00,49.7,29.7,29.97,SW,233,3.9,4.6,46,0.00,CLR,,0.00,66.0,WeatherDisplay:10.37,2013-02-23 22:16:00,
2013-02-23 16:21:00,50.0,30.5,29.97,WSW,254,3.8,8.1,47,0.00,CLR,,0.00,73.7,WeatherDisplay:10.37,2013-02-23 22:21:00,
2013-02-23 16:26:00,49.9,31.0,29.97,West,263,3.3,4.6,48,0.00,CLR,,0.00,63.8,WeatherDisplay:10.37,2013-02-23 22:26:00,
2013-02-23 16:31:00,49.7,30.8,29.97,West,260,4.0,5.8,48,0.00,CLR,,0.00,73.7,WeatherDisplay:10.37,2013-02-23 22:31:00,
2013-02-23 16:36:00,49.2,29.8,29.97,West,260,0.8,2.3,47,0.00,CLR,,0.00,51.7,WeatherDisplay:10.37,2013-02-23 22:36:00,
2013-02-23 16:41:00,49.4,30.0,29.96,West,260,0.4,1.1,47,0.00,CLR,,0.00,86.9,WeatherDisplay:10.37,2013-02-23 22:41:00,
2013-02-23 16:46:00,49.3,29.4,29.97,West,260,0.8,3.5,46,0.00,CLR,,0.00,50.6,WeatherDisplay:10.37,2013-02-23 22:46:00,
2013-02-23 16:51:00,49.2,29.8,29.97,WSW,258,0.6,3.5,47,0.00,CLR,,0.00,91.3,WeatherDisplay:10.37,2013-02-23 22:51:00,
2013-02-23 16:56:00,48.9,30.1,29.96,WSW,258,2.9,3.0,48,0.00,CLR,,0.00,46.2,WeatherDisplay:10.37,2013-02-23 22:56:00,
2013-02-23 17:01:00,49.6,32.2,29.96,WSW,238,3.1,8.1,51,0.00,CLR,,0.00,63.8,WeatherDisplay:10.37,2013-02-23 23:01:00,
2013-02-23 17:06:00,49.4,31.5,29.96,WSW,237,1.7,3.5,50,0.00,CLR,,0.00,42.9,WeatherDisplay:10.37,2013-02-23 23:06:00,
2013-02-23 17:11:00,49.2,31.8,29.96,SW,235,3.1,5.8,51,0.00,CLR,,0.00,42.9,WeatherDisplay:10.37,2013-02-23 23:11:00,
2013-02-23 17:16:00,49.2,32.8,29.96,SW,233,4.7,5.8,53,0.00,CLR,,0.00,38.5,WeatherDisplay:10.37,2013-02-23 23:16:00,
2013-02-23 17:21:00,48.7,31.4,29.96,SW,233,1.5,3.5,51,0.00,CLR,,0.00,35.2,WeatherDisplay:10.37,2013-02-23 23:21:00,
2013-02-23 17:26:00,48.5,31.7,29.96,SW,233,3.2,4.0,52,0.00,CLR,,0.00,33.0,WeatherDisplay:10.37,2013-02-23 23:26:00,
2013-02-23 17:31:00,48.4,31.6,29.95,SW,233,2.5,3.5,52,0.00,CLR,,0.00,33.0,WeatherDisplay:10.37,2013-02-23 23:31:00,
2013-02-23 17:36:00,48.3,31.9,29.95,SW,233,1.9,3.5,53,0.00,CLR,,0.00,28.6,WeatherDisplay:10.37,2013-02-23 23:36:00,
2013-02-23 17:41:00,48.1,31.3,29.95,SW,233,0.9,2.3,52,0.00,CLR,,0.00,27.5,WeatherDisplay:10.37,2013-02-23 23:41:00,
2013-02-23 17:46:00,48.0,30.7,29.95,SW,233,0.0,0.0,51,0.00,CLR,,0.00,23.1,WeatherDisplay:10.37,2013-02-23 23:46:00,
2013-02-23 17:51:00,47.6,30.3,29.95,SW,233,0.0,0.0,51,0.00,CLR,,0.00,20.9,WeatherDisplay:10.37,2013-02-23 23:51:00,
2013-02-23 17:56:00,47.1,30.8,29.95,SW,233,0.0,0.0,53,0.00,CLR,,0.00,19.8,WeatherDisplay:10.37,2013-02-23 23:56:00,
2013-02-23 18:01:00,46.8,31.0,29.95,SW,233,0.0,0.0,54,0.00,CLR,,0.00,15.4,WeatherDisplay:10.37,2013-02-24 00:01:00,
2013-02-23 18:06:00,46.5,31.2,29.95,SW,233,0.0,0.0,55,0.00,CLR,,0.00,13.2,WeatherDisplay:10.37,2013-02-24 00:06:00,
2013-02-23 18:11:00,46.0,31.6,29.95,SW,233,0.7,1.1,57,0.00,CLR,,0.00,9.9,WeatherDisplay:10.37,2013-02-24 00:11:00,
2013-02-23 18:16:00,45.4,31.5,29.95,SW,233,0.7,2.3,58,0.00,CLR,,0.00,7.7,WeatherDisplay:10.37,2013-02-24 00:16:00,
2013-02-23 18:21:00,44.7,31.2,29.95,SW,233,0.2,1.1,59,0.00,CLR,,0.00,0.0,WeatherDisplay:10.37,2013-02-24 00:21:00,
2013-02-23 18:26:00,44.0,32.6,29.95,SW,233,0.8,1.0,64,0.00,CLR,,0.00,0.0,WeatherDisplay:10.37,2013-02-24 00:26:00,
2013-02-23 18:31:00,43.6,32.6,29.95,SW,233,2.2,3.5,65,0.00,CLR,,0.00,0.0,WeatherDisplay:10.37,2013-02-24 00:31:00,
2013-02-23 18:36:00,43.6,31.8,29.96,SW,233,2.2,3.5,63,0.00,CLR,,0.00,0.0,WeatherDisplay:10.37,2013-02-24 00:36:00,
2013-02-23 18:41:00,43.6,31.4,29.96,SW,233,1.9,2.3,62,0.00,CLR,,0.00,0.0,WeatherDisplay:10.37,2013-02-24 00:41:00,
2013-02-23 18:46:00,43.4,31.6,29.96,SW,233,2.0,3.5,63,0.00,CLR,,0.00,0.0,WeatherDisplay:10.37,2013-02-24 00:46:00,
2013-02-23 18:51:00,42.6,31.3,29.96,SW,233,0.8,2.3,64,0.00,CLR,,0.00,0.0,WeatherDisplay:10.37,2013-02-24 00:51:00,
2013-02-23 18:56:00,41.9,31.4,29.96,SW,233,1.2,2.3,66,0.00,CLR,,0.00,0.0,WeatherDisplay:10.37,2013-02-24 00:56:00,
2013-02-23 19:01:00,42.1,31.6,29.96,SW,233,1.8,3.5,66,0.00,CLR,,0.00,0.0,WeatherDisplay:10.37,2013-02-24 01:01:00,
2013-02-23 19:06:00,42.0,31.5,29.97,SW,233,0.8,2.3,66,0.00,CLR,,0.00,0.0,WeatherDisplay:10.37,2013-02-24 01:06:00,
2013-02-23 19:11:00,41.6,31.4,29.97,SW,233,1.1,2.3,67,0.00,CLR,,0.00,0.0,WeatherDisplay:10.37,2013-02-24 01:11:00,
2013-02-23 19:16:00,41.5,31.4,29.97,SW,233,0.6,1.1,67,0.00,CLR,,0.00,0.0,WeatherDisplay:10.37,2013-02-24 01:16:00,
2013-02-23 19:21:00,40.6,31.2,29.96,SW,233,0.3,1.1,69,0.00,CLR,,0.00,0.0,WeatherDisplay:10.37,2013-02-24 01:21:00,
2013-02-23 19:26:00,39.7,31.4,29.96,SW,233,0.1,1.1,72,0.00,CLR,,0.00,0.0,WeatherDisplay:10.37,2013-02-24 01:26:00,
2013-02-23 19:31:00,38.8,32.2,29.97,SW,233,0.0,0.0,77,0.00,CLR,,0.00,0.0,WeatherDisplay:10.37,2013-02-24 01:31:00,
2013-02-23 19:36:00,38.1,32.5,29.97,SW,233,0.0,0.0,80,0.00,CLR,,0.00,0.0,WeatherDisplay:10.37,2013-02-24 01:36:00,
2013-02-23 19:41:00,37.7,31.8,29.98,SW,233,0.0,0.0,79,0.00,CLR,,0.00,0.0,WeatherDisplay:10.37,2013-02-24 01:41:00,
2013-02-23 19:46:00,38.0,31.1,29.97,SW,233,0.0,0.0,76,0.00,CLR,,0.00,0.0,WeatherDisplay:10.37,2013-02-24 01:46:00,
2013-02-23 19:51:00,37.7,31.5,29.97,SW,233,0.0,0.0,78,0.00,CLR,,0.00,0.0,WeatherDisplay:10.37,2013-02-24 01:51:00,
2013-02-23 19:56:00,37.8,30.9,29.97,SW,233,0.0,0.0,76,0.00,CLR,,0.00,0.0,WeatherDisplay:10.37,2013-02-24 01:56:00,
2013-02-23 20:01:00,37.2,31.0,29.97,SW,233,0.0,0.0,78,0.00,CLR,,0.00,0.0,WeatherDisplay:10.37,2013-02-24 02:01:00,
2013-02-23 20:06:00,36.7,31.4,29.97,SW,233,0.0,0.0,81,0.00,CLR,,0.00,0.0,WeatherDisplay:10.37,2013-02-24 02:06:00,
2013-02-23 20:11:00,36.2,31.5,29.97,SW,233,0.0,0.0,83,0.00,CLR,,0.00,0.0,WeatherDisplay:10.37,2013-02-24 02:11:00,
2013-02-23 20:16:00,35.9,31.5,29.97,SW,233,0.5,1.1,84,0.00,CLR,,0.00,0.0,WeatherDisplay:10.37,2013-02-24 02:16:00,
2013-02-23 20:21:00,35.4,30.1,29.97,SW,233,0.1,1.1,81,0.00,CLR,,0.00,0.0,WeatherDisplay:10.37,2013-02-24 02:21:00,
2013-02-23 20:26:00,34.8,30.2,29.97,SW,233,0.2,1.1,83,0.00,CLR,,0.00,0.0,WeatherDisplay:10.37,2013-02-24 02:26:00,
2013-02-23 20:31:00,34.6,30.0,29.97,SW,233,1.7,3.5,83,0.00,CLR,,0.00,0.0,WeatherDisplay:10.37,2013-02-24 02:31:00,
2013-02-23 20:36:00,34.0,29.4,29.97,SW,233,1.3,2.3,83,0.00,CLR,,0.00,0.0,WeatherDisplay:10.37,2013-02-24 02:36:00,
2013-02-23 20:41:00,33.8,29.5,29.96,SW,233,1.1,2.3,84,0.00,CLR,,0.00,0.0,WeatherDisplay:10.37,2013-02-24 02:41:00,
2013-02-23 20:46:00,33.9,30.2,29.97,SW,233,0.8,1.1,86,0.00,CLR,,0.00,0.0,WeatherDisplay:10.37,2013-02-24 02:46:00,
2013-02-23 20:51:00,34.8,30.5,29.97,SW,233,0.0,0.0,84,0.00,CLR,,0.00,0.0,WeatherDisplay:10.37,2013-02-24 02:51:00,
2013-02-23 20:56:00,35.6,30.6,29.97,SW,233,0.0,0.0,82,0.00,CLR,,0.00,0.0,WeatherDisplay:10.37,2013-02-24 02:56:00,
2013-02-23 21:01:00,35.4,30.5,29.97,SW,233,1.3,3.5,82,0.00,CLR,,0.00,0.0,WeatherDisplay:10.37,2013-02-24 03:01:00,
2013-02-23 21:06:00,35.5,30.5,29.97,SW,233,1.1,3.5,82,0.00,CLR,,0.00,0.0,WeatherDisplay:10.37,2013-02-24 03:06:00,
2013-02-23 21:11:00,35.0,30.7,29.97,SW,232,1.1,2.3,84,0.00,CLR,,0.00,0.0,WeatherDisplay:10.37,2013-02-24 03:11:00,
2013-02-23 21:16:00,35.6,30.0,29.97,SW,232,1.8,3.5,80,0.00,CLR,,0.00,0.0,WeatherDisplay:10.37,2013-02-24 03:16:00,
2013-02-23 21:21:00,35.4,30.5,29.96,SW,232,1.3,3.5,82,0.00,CLR,,0.00,0.0,WeatherDisplay:10.37,2013-02-24 03:21:00,
2013-02-23 21:26:00,34.4,30.4,29.95,SW,229,2.1,3.5,85,0.00,CLR,,0.00,0.0,WeatherDisplay:10.37,2013-02-24 03:26:00,
2013-02-23 21:31:00,34.3,29.4,29.95,SW,226,2.9,4.0,82,0.00,CLR,,0.00,0.0,WeatherDisplay:10.37,2013-02-24 03:31:00,
2013-02-23 21:36:00,35.9,29.7,29.96,SW,225,2.2,4.6,78,0.00,CLR,,0.00,0.0,WeatherDisplay:10.37,2013-02-24 03:36:00,
2013-02-23 21:41:00,36.4,29.2,29.96,SW,224,1.6,3.5,75,0.00,CLR,,0.00,0.0,WeatherDisplay:10.37,2013-02-24 03:41:00,
2013-02-23 21:46:00,36.4,28.9,29.96,SW,223,2.9,3.5,74,0.00,CLR,,0.00,0.0,WeatherDisplay:10.37,2013-02-24 03:46:00,
2013-02-23 21:51:00,36.7,29.2,29.96,SW,223,0.4,3.5,74,0.00,CLR,,0.00,0.0,WeatherDisplay:10.37,2013-02-24 03:51:00,
2013-02-23 21:56:00,36.4,29.2,29.96,SW,223,0.1,1.1,75,0.00,CLR,,0.00,0.0,WeatherDisplay:10.37,2013-02-24 03:56:00,
2013-02-23 22:01:00,35.8,29.0,29.96,SW,223,0.5,2.3,76,0.00,CLR,,0.00,0.0,WeatherDisplay:10.37,2013-02-24 04:01:00,
2013-02-23 22:06:00,35.6,29.1,29.96,SW,223,0.4,0.0,77,0.00,CLR,,0.00,0.0,WeatherDisplay:10.37,2013-02-24 04:06:00,
2013-02-23 22:11:00,35.1,28.9,29.97,SW,223,1.9,3.5,78,0.00,CLR,,0.00,0.0,WeatherDisplay:10.37,2013-02-24 04:11:00,
2013-02-23 22:16:00,34.8,28.6,29.97,SW,223,1.4,2.3,78,0.00,CLR,,0.00,0.0,WeatherDisplay:10.37,2013-02-24 04:16:00,
2013-02-23 22:21:00,34.6,28.4,29.96,SW,223,1.2,2.0,78,0.00,CLR,,0.00,0.0,WeatherDisplay:10.37,2013-02-24 04:21:00,
2013-02-23 22:26:00,34.6,28.4,29.97,SW,223,2.5,3.5,78,0.00,CLR,,0.00,0.0,WeatherDisplay:10.37,2013-02-24 04:26:00,
2013-02-23 22:31:00,34.9,28.4,29.97,SW,223,2.4,3.5,77,0.00,CLR,,0.00,0.0,WeatherDisplay:10.37,2013-02-24 04:31:00,
2013-02-23 22:36:00,34.7,28.2,29.97,SW,223,1.7,3.5,77,0.00,CLR,,0.00,0.0,WeatherDisplay:10.37,2013-02-24 04:36:00,
2013-02-23 22:41:00,34.8,28.0,29.97,SW,223,0.0,0.0,76,0.00,CLR,,0.00,0.0,WeatherDisplay:10.37,2013-02-24 04:41:00,
2013-02-23 22:46:00,34.7,27.9,29.97,SW,223,0.3,1.1,76,0.00,CLR,,0.00,0.0,WeatherDisplay:10.37,2013-02-24 04:46:00,
2013-02-23 22:51:00,34.5,27.7,29.96,SW,223,0.8,2.3,76,0.00,CLR,,0.00,0.0,WeatherDisplay:10.37,2013-02-24 04:51:00,
2013-02-23 22:56:00,34.0,27.9,29.96,SW,223,0.0,0.0,78,0.00,CLR,,0.00,0.0,WeatherDisplay:10.37,2013-02-24 04:56:00,
2013-02-23 23:00:00,33.5,28.3,29.96,SW,223,2.7,3.5,81,0.00,CLR,,0.00,0.0,WeatherDisplay:10.37,2013-02-24 05:00:00,
2013-02-23 23:05:00,33.3,27.8,29.96,SW,223,1.3,2.3,80,0.00,CLR,,0.00,0.0,WeatherDisplay:10.37,2013-02-24 05:05:00,
2013-02-23 23:10:00,32.4,27.8,29.96,SW,223,2.1,3.5,83,0.00,CLR,,0.00,0.0,WeatherDisplay:10.37,2013-02-24 05:10:00,
2013-02-23 23:15:00,31.2,26.9,29.95,SW,223,2.3,3.5,84,0.00,CLR,,0.00,0.0,WeatherDisplay:10.37,2013-02-24 05:15:00,
2013-02-23 23:20:00,30.5,26.5,29.95,SW,223,2.6,3.5,85,0.00,CLR,,0.00,0.0,WeatherDisplay:10.37,2013-02-24 05:20:00,
2013-02-23 23:25:00,30.5,26.5,29.95,SW,223,2.4,4.0,85,0.00,CLR,,0.00,0.0,WeatherDisplay:10.37,2013-02-24 05:25:00,
2013-02-23 23:30:00,31.1,27.1,29.95,SW,223,1.7,3.5,85,0.00,CLR,,0.00,0.0,WeatherDisplay:10.37,2013-02-24 05:30:00,
2013-02-23 23:35:00,31.3,27.3,29.94,SW,223,0.8,2.3,85,0.00,CLR,,0.00,0.0,WeatherDisplay:10.37,2013-02-24 05:35:00,
2013-02-23 23:40:00,31.5,27.2,29.94,SW,223,0.5,2.3,84,0.00,CLR,,0.00,0.0,WeatherDisplay:10.37,2013-02-24 05:40:00,
2013-02-23 23:45:00,30.9,27.5,29.94,SW,223,1.5,2.3,87,0.00,CLR,,0.00,0.0,WeatherDisplay:10.37,2013-02-24 05:45:00,
2013-02-23 23:50:00,30.7,27.3,29.93,SW,216,1.8,3.5,87,0.00,CLR,,0.00,0.0,WeatherDisplay:10.37,2013-02-24 05:50:00,
2013-02-23 23:55:00,31.7,27.7,29.94,SW,215,0.7,2.3,85,0.00,CLR,,0.00,0.0,WeatherDisplay:10.37,2013-02-24 05:55:00,